Corona, CA

6:09 AM PST on February 24, 2018 (GMT -0800)
Corona Municipal

Weather History for KAJO - April, 2013

Change the Weather History Date:

Wednesday, April 10, 2013

  Actual Average (KCNO) Record (KCNO)
Temperature  
Mean Temperature 58 °F -  
Max Temperature 82 °F 69 °F 90 °F (2014)
Min Temperature 36 °F 42 °F 32 °F (1999)
Degree Days  
Heating Degree Days 6    
Growing Degree Days 8 (Base 50)    
Moisture  
Dew Point 29 °F    
Average Humidity 39    
Maximum Humidity 83    
Minimum Humidity 9    
Precipitation  
Precipitation 0.00 in - - ()
Sea Level Pressure  
Sea Level Pressure 30.02 in    
Wind  
Wind Speed 4 mph (West)    
Max Wind Speed 16 mph    
Max Gust Speed 23 mph    
Visibility 10 miles    
Events      
Averages and records for this station are not official NWS values.
T = Trace of Precipitation, MM = Missing Value Source: NWS Daily Summary

Daily Weather History Graph

Daily Weather History Graph

Search for Another Location

Airport or City:

Trip Planner

Search our weather history database for the weather conditions in past years. The results will help you decide how hot, cold, wet, or windy it might be!

Date:

Astronomy

Apr. 10, 2013 Rise Set
Actual Time 6:25 AM PDT 7:18 PM PDT
Civil Twilight 6:00 AM PDT 7:43 PM PDT
Nautical Twilight 5:29 AM PDT 8:13 PM PDT
Astronomical Twilight 4:59 AM PDT 8:44 PM PDT
Moon 6:25 AM PDT (4/10) 7:55 PM PDT (4/10)
Length of Visible Light 13h 43m
Length of Day
12h 52m
New Moon, 0% of the Moon is Illuminated
Apr 10
New Moon
Apr 18
First Quarter
Apr 25
Full
May 2
Last Quarter
May 9
New

Hourly Weather History & Observations

Time (PDT) Temp. Windchill Dew Point Humidity Pressure Visibility Wind Dir Wind Speed Gust Speed Precip Events Conditions
12:56 AM 46.9 °F - 36.0 °F 66% 30.02 in 10.0 mi Calm Calm - N/A   Clear
1:56 AM 41.9 °F 40.0 °F 34.0 °F 73% 30.03 in 10.0 mi Variable 3.5 mph - N/A   Clear
2:56 AM 43.9 °F - 34.9 °F 71% 30.02 in 10.0 mi Calm Calm - N/A   Clear
3:56 AM 41.0 °F - 34.0 °F 76% 30.01 in 10.0 mi Calm Calm - N/A   Clear
4:56 AM 36.0 °F - 31.1 °F 82% 30.03 in 10.0 mi Calm Calm - N/A   Clear
5:56 AM 38.8 °F - 34.0 °F 83% 30.04 in 10.0 mi Calm Calm - N/A   Clear
6:56 AM 39.9 °F - 34.9 °F 82% 30.06 in 10.0 mi Calm Calm - N/A   Clear
8:56 AM 61.9 °F - 37.9 °F 41% 30.07 in 10.0 mi Calm Calm - N/A   Clear
9:56 AM 70.0 °F - 31.1 °F 24% 30.08 in 10.0 mi West 8.1 mph - N/A   Clear
10:56 AM 75.9 °F - 25.2 °F 15% 30.08 in 10.0 mi NNW 8.1 mph - N/A   Clear
11:56 AM 77.9 °F - 23.0 °F 13% 30.06 in 10.0 mi Variable 5.8 mph - N/A   Clear
12:56 PM 79.9 °F - 20.1 °F 11% 30.04 in 10.0 mi WSW 9.2 mph - N/A   Clear
1:56 PM 79.9 °F - 19.0 °F 10% 30.02 in 10.0 mi West 9.2 mph - N/A   Clear
2:56 PM 81.9 °F - 18.1 °F 9% 30.00 in 10.0 mi West 9.2 mph - N/A   Clear
3:56 PM 79.9 °F - 25.2 °F 13% 29.98 in 10.0 mi West 16.1 mph 21.9 mph N/A   Clear
4:56 PM 79.9 °F - 23.0 °F 12% 29.97 in 10.0 mi West 15.0 mph 23.0 mph N/A   Clear
5:56 PM 77.0 °F - 28.0 °F 17% 29.97 in 10.0 mi West 15.0 mph - N/A   Clear
6:56 PM 73.9 °F - 29.1 °F 19% 29.98 in 10.0 mi West 10.4 mph 18.4 mph N/A   Clear
7:56 PM 68.9 °F - 32.9 °F 26% 29.98 in 10.0 mi West 9.2 mph - N/A   Clear
8:56 PM 68.0 °F - 31.1 °F 25% 30.01 in 10.0 mi West 6.9 mph - N/A   Clear
9:56 PM 56.8 °F - 29.1 °F 35% 30.03 in 10.0 mi Calm Calm - N/A   Clear
10:56 PM 50.9 °F - 32.0 °F 48% 30.02 in 10.0 mi Calm Calm - N/A   Clear
11:56 PM 46.9 °F - 32.0 °F 56% 30.01 in 10.0 mi Calm Calm - N/A   Clear